Satellite Precipitation Estimates (TXUS20 KWBC)
Issued by NWS

Home | Current Version | Previous Version | Text Only | Print | Product List | Glossary On
Versions: 1 2 3 4 5 6 7
000
SPTD31 TTPP 301121
SPECI
TTPP 301120Z 00000KT 4000 -TSRA FEW012CB BKN015 25/24 Q1015=



USA.gov is the U.S. government's official web portal to all federal, state and local government web resources and services.